CW1259 Weather Reports


time (UTC)temp
F
wind
direction
speed
knots
gust
knots
rain 1hr
in
rain 24hr
in
rain mn
in
humidity
%
barometer
mb
20260504140319 51 270 6.1 8.7 0.00 0.00 0.00 66 1007.1
20260504130312 49 279 8.7 14.8 0.00 0.00 0.00 66 1008.2
20260504120316 47 288 5.2 11.3 0.00 0.00 0.00 64 1008.4
20260504040320 36 272 3.5 5.2 0.00 0.00 0.00 73 1007.9
20260504040023 35 280 1.7 3.5 0.00 0.00 0.00 73 1008.4
20260504035320 36 279 2.6 3.5 0.00 0.00 0.00 73 1007.8
20260504034559 35 272 1.7 4.3 0.00 0.00 0.00 73 1008.3
20260504034315 36 271 1.7 6.1 0.00 0.00 0.00 73 1007.7
20260504033338 36 268 3.5 6.1 0.00 0.00 0.00 73 1007.7
20260504033012 35 267 4.3 6.1 0.00 0.00 0.00 73 1008.3
20260504032352 36 269 4.3 7.0 0.00 0.00 0.00 71 1007.7
20260504031521 37 261 3.5 7.0 0.00 0.00 0.00 70 1008.2
20260504031331 37 273 4.3 7.0 0.00 0.00 0.00 70 1007.6
20260504030354 37 279 5.2 7.8 0.00 0.00 0.00 71 1007.6
20260504030035 36 270 5.2 8.7 0.00 0.00 0.00 71 1008.2
20260504025326 36 281 4.3 7.0 0.00 0.00 0.00 73 1007.6
20260504024545 36 279 2.6 6.1 0.00 0.00 0.00 71 1008.1
20260504024317 37 287 2.6 3.5 0.00 0.00 0.00 70 1007.6
20260504023315 37 273 3.5 6.1 0.00 0.00 0.00 69 1007.8
20260504023104 37 283 2.6 6.1 0.00 0.00 0.00 69 1008.3
20260504022323 38 283 4.3 7.0 0.00 0.00 0.00 68 1007.9
20260504021522 38 283 4.3 7.0 0.00 0.00 0.00 68 1008.3
20260504021323 38 284 5.2 7.0 0.00 0.00 0.00 67 1007.9
20260504020318 40 275 3.5 7.0 0.00 0.00 0.00 64 1007.7
20260504020040 40 292 4.3 7.0 0.00 0.02 0.00 64 1008.2
20260504015337 41 277 4.3 8.7 0.00 0.02 0.00 63 1007.6
20260504014524 40 310 4.3 8.7 0.00 0.02 0.00 62 1008.1
20260504014332 41 313 3.5 8.7 0.00 0.02 0.00 62 1007.7
20260504013325 41 341 4.3 9.6 0.00 0.02 0.00 61 1007.5
20260504013026 41 332 6.1 9.6 0.00 0.02 0.00 61 1008.1
20260504012326 41 338 4.3 9.6 0.00 0.02 0.00 61 1007.5
20260504011556 41 306 4.3 9.6 0.00 0.02 0.00 61 1008.0
20260504011323 41 331 4.3 8.7 0.00 0.02 0.00 60 1007.4
20260504010323 42 317 3.5 11.3 0.00 0.02 0.00 61 1007.3
20260504010110 41 315 6.1 11.3 0.00 0.02 0.00 60 1007.8
20260504005318 42 336 3.5 8.7 0.00 0.02 0.00 60 1007.1
20260504004522 42 305 4.3 7.8 0.00 0.02 0.00 59 1007.5
20260504004320 42 281 4.3 7.8 0.00 0.02 0.00 58 1007.0
20260504003317 43 335 7.8 14.8 0.00 0.02 0.00 57 1006.8
20260504003043 42 342 6.1 14.8 0.00 0.02 0.00 57 1007.3
20260504002337 43 351 8.7 18.2 0.00 0.02 0.00 56 1006.7
20260504001512 43 344 10.4 26.1 0.00 0.02 0.00 55 1007.1
20260504001331 43 360 8.7 26.1 0.00 0.02 0.00 55 1006.5
20260504000324 44 311 8.7 13.9 0.00 0.02 0.00 55 1006.3
20260504000028 43 332 8.7 13.9 0.00 0.02 0.00 55 1006.8
20260503235325 44 340 7.8 12.2 0.00 0.02 0.00 54 1006.2
20260503234559 43 320 6.1 15.6 0.00 0.02 0.00 54 1006.6
20260503234319 44 343 6.1 16.5 0.00 0.02 0.00 53 1006.1
20260503233313 44 307 5.2 18.2 0.00 0.02 0.00 53 1005.9
20260503233013 44 32 9.6 18.2 0.00 0.02 0.00 52 1006.3
20260503232331 45 5 11.3 20.0 0.00 0.02 0.00 51 1005.8